Location: Observatorio Las Palmas
(29.0667°N, 110.9333°W)
Time: 21:49:59
(UTC-07:00)

Daily predictions for brighter satellites

Satellite Brightness Start Highest point End
(mag) Time Altitude Azimuth Time Altitude Azimuth Time Altitude Azimuth
Spot 2 Rocket 4.0 19:41:02 10° SE 19:45:50 43° ENE 19:50:39 10° N
Cosmos 923 Rocket 4.0 19:42:21 10° NNW 19:47:37 76° ENE 19:52:54 10° SSE
ASTRO F (AKARI) 4.5 19:45:26 10° NNE 19:48:54 72° ESE 19:52:32 10° S
Cosmos 1707 Rocket 3.6 19:47:13 10° N 19:51:38 87° W 19:55:59 10° S
GPS 2-17 Rocket1 4.3 19:48:49 10° SW 19:52:24 23° S 19:55:55 10° ESE
Cosmos 1633 Rocket 3.4 19:48:03 10° SSW 19:52:24 72° W 19:56:49 10° N
Cosmos 1464 Rocket 4.1 19:47:24 10° N 19:53:42 66° E 20:00:01 10° SSE
NOSS 3-2 (A) 3.5 19:47:55 10° SSW 19:53:45 87° WNW 20:00:04 10° NNE
Cosmos 1400 Rocket 3.5 19:50:50 10° SSW 19:54:53 62° W 19:58:55 10° N
Cosmos 2242 Rocket 4.0 19:54:03 10° N 19:58:18 44° E 20:02:31 10° SSE
Resurs 01 Rocket 1.6 20:01:04 10° SSE 20:05:28 85° ENE 20:09:55 10° N
Helios 1B rocket 3.2 20:02:29 10° NE 20:06:07 30° E 20:09:45 10° SSE
Hubble Space Telescope 1.0 20:03:32 10° W 20:07:37 59° SSW 20:10:54 15° ESE
Cosmos 1933 Rocket 3.4 20:05:57 10° S 20:10:15 73° E 20:14:35 10° N
YAOGAN 6 4.2 20:10:29 15° ESE 20:12:18 20° ENE 20:15:06 10° NNE
Envisat 3.2 20:07:41 10° SSE 20:12:36 54° ENE 20:17:33 10° N
NOSS 3-2 (C) 3.5 20:07:18 10° SSW 20:13:09 84° WNW 20:19:28 10° NNE
Cosmos 1898 Rocket 4.0 20:08:56 10° SSW 20:14:08 67° WNW 20:19:26 10° N
Meteor 2-3 Rocket 4.0 20:08:42 10° SSE 20:14:09 46° E 20:19:35 10° NNE
Cosmos 2112 Rocket 4.1 20:10:04 10° NNW 20:15:27 90° E 20:20:47 10° SSE
Milstar 3 3.9 20:02:41 10° SW 20:17:04 55° SSE 20:24:59 10° E
Cosmos 1680 Rocket 3.8 20:12:42 10° NNW 20:18:00 71° WSW 20:23:16 10° S
Timation 2 Rocket 4.4 20:13:31 10° N 20:19:43 51° ENE 20:24:50 16° SE
Cosmos 990 Rocket 3.9 20:15:00 10° S 20:20:09 82° ESE 20:25:23 10° NNE
Cosmos 1862 Rocket 3.8 20:16:04 10° N 20:20:27 53° E 20:24:12 14° SSE
GPS 2-04 Rocket1 4.0 20:21:02 10° WNW 20:24:27 33° N 20:27:44 10° NE
Cosmos 1315 Rocket 3.7 20:21:05 10° SSW 20:24:57 52° W 20:28:55 10° N
Helios 1A 3.6 20:22:42 19° SE 20:25:06 37° ENE 20:28:58 10° N
Cosmos 1816 Rocket 4.4 20:20:18 10° S 20:26:30 80° E 20:32:39 10° N
Delta 7925 Rocket 4.4 20:25:07 10° SW 20:29:16 28° SSE 20:31:21 22° ESE
ISS -3.2 20:26:08 10° SW 20:29:20 58° NW 20:32:32 10° NE
Aureole 1 4.5 20:28:13 21° SSE 20:29:52 41° ESE 20:32:46 10° NNE
Meteor 2-10 Rocket 3.8 20:27:02 10° N 20:32:53 89° W 20:38:39 10° S
Delta 2 Rocket 4.2 20:27:11 10° W 20:33:42 73° S 20:39:33 19° E
Cosmos 2082 Rocket 2.6 20:28:47 10° NNW 20:34:22 63° WSW 20:39:55 10° S
CENTAUR R/B 2.7 20:29:19 10° S 20:34:39 41° ESE 20:40:32 10° NE
COSMOS 2487 2.6 20:33:09 10° NNW 20:36:41 72° WSW 20:38:55 21° S
Cosmos 1825 4.1 20:37:59 15° ENE 20:37:59 15° ENE 20:39:27 10° NE
Cosmos 2346 Rocket 4.3 20:33:15 10° S 20:39:15 77° E 20:45:18 10° N
Cosmos 1408 4.4 20:40:28 18° ENE 20:40:28 18° ENE 20:42:12 10° NE
OAO 3 Copernicus 4.2 20:35:18 10° WSW 20:40:18 69° SSE 20:44:25 15° ENE
COSMOS 2455 2.8 20:35:53 10° SSW 20:41:53 84° ESE 20:47:55 10° NNE
H-2A R/B 3.9 20:44:20 14° ENE 20:45:11 15° ENE 20:48:01 10° NE
Cosmos 1833 Rocket 3.5 20:42:08 10° NNW 20:47:33 49° WSW 20:52:39 11° S
Cosmos 1892 3.3 20:45:08 10° SSW 20:48:57 58° W 20:52:44 10° N
SPOT 5 4.5 20:49:16 21° E 20:50:15 22° ENE 20:54:14 10° NNE
Tiangong 2 3.9 20:49:25 10° N 20:50:45 12° NNE 20:52:05 10° NE
GPS 2-15 Rocket1 4.4 20:48:17 10° WSW 20:51:55 23° S 20:52:20 22° S
Okean 1-7 4.1 20:48:57 10° NNE 20:52:42 27° E 20:52:43 27° E
USA 186 4.2 20:55:04 10° WSW 20:56:17 13° W 20:57:32 10° WNW
Meteor 1-29 3.4 20:53:25 10° N 20:56:53 63° WNW 20:59:19 18° SSW
Cosmos 1703 Rocket 3.8 20:52:57 10° N 20:57:14 49° E 20:57:56 44° ESE
DNEPR-1 R/B 3.9 20:52:07 10° SSW 20:57:53 63° ESE 21:02:41 10° NE
Cosmos 2344 3.7 20:50:50 10° S 20:58:19 48° ESE 21:05:44 10° NE
Spot 1 4.3 21:02:18 34° S 21:04:22 83° WSW 21:09:16 10° NNW
MetOp-A 4.5 21:04:04 39° ESE 21:05:23 47° ENE 21:10:29 10° N
Cosmos 1939 Rocket 4.0 21:03:15 19° SSW 21:05:49 43° W 21:09:46 10° NNW
Lacrosse 5 rocket 2.2 21:02:43 10° WSW 21:06:07 41° NW 21:09:33 10° NNE
Cosmos 2263 4.1 21:00:34 10° SSW 21:06:20 77° ESE 21:12:05 10° NNE
OAO 2 Rocket 3.2 21:01:21 10° WNW 21:06:23 80° NNE 21:07:49 47° E
Cosmos 1943 Rocket 2.1 21:05:37 25° S 21:08:48 61° ESE 21:14:18 10° NNE
CZ-4B DEB 3.2 21:09:44 54° NW 21:09:44 54° NW 21:12:13 10° NNW
Cosmos 1869 Rocket 3.4 21:07:56 37° S 21:09:36 86° W 21:13:57 10° N
NOAA 11 4.2 21:10:03 43° SE 21:11:44 67° ENE 21:17:10 10° N
Cosmos 1346 Rocket 3.3 21:13:12 10° NNW 21:17:05 55° W 21:17:59 43° SW
FUSE 4.0 21:13:44 10° WSW 21:18:54 54° S 21:19:04 54° SSE
Cosmos 2369 Rocket 3.0 21:17:37 10° SW 21:23:03 50° WNW 21:28:34 10° N
Cosmos 2221 Rocket 3.5 21:18:45 10° N 21:23:01 69° ENE 21:23:01 69° ENE
ERS-1 Rocket 2.9 21:23:22 58° SSE 21:24:24 89° WSW 21:29:27 10° NNW
Cosmos 1606 4.0 21:23:48 10° N 21:26:04 32° NNE 21:26:04 32° NNE
Nimbus 7 Rocket 4.4 21:21:59 10° NNE 21:27:44 56° ESE 21:28:04 55° ESE
Shenzhou-11 Module 4.5 21:26:52 10° NNW 21:28:24 19° N 21:28:24 19° N
Delta 168 3.6 21:26:24 10° W 21:29:51 51° SSW 21:29:51 51° SSW
Aurora 2 Rocket 4.3 21:28:47 10° WSW 21:31:03 20° SW 21:31:03 20° SW
Meteor 1-10 Rocket 4.2 21:31:06 10° N 21:37:03 76° E 21:37:43 67° SE
Meteor 1-27 Rocket 4.4 21:32:45 10° N 21:37:36 40° ENE 21:37:36 40° ENE
SPOT 1/Viking Rocket 3.9 21:43:30 50° NE 21:43:30 50° NE 21:47:57 10° N
Hubble Space Telescope 3.2 21:45:18 10° WSW 21:46:16 15° WSW 21:46:16 15° WSW
Nadezhda 4 Rocket 3.9 21:48:55 65° E 21:48:55 65° E 21:54:54 10° NNE
Cosmos 1782 4.0 21:47:51 10° NNW 21:50:37 40° NW 21:50:37 40° NW
VEP-3 4.3 13:17:16 10° SW 21:51:51 67° SSW 21:56:20 45° SE
USA 215 3.2 21:51:26 59° E 21:52:28 68° NE 21:58:59 10° NW
Meteor 2-6 Rocket 4.2 21:47:17 10° N 21:53:15 84° W 21:53:39 78° SSW
Lacrosse 4 Rocket 3.6 21:50:05 10° N 21:52:03 19° NNE 21:52:03 19° NNE
USA 245 4.3 21:54:32 69° SSW 21:55:08 75° W 22:01:27 10° NNW
ATLAS 5 CENTAUR R/B 3.3 21:53:47 10° N 21:59:24 37° NE 21:59:24 37° NE
H-2A ROCKET BODY 2.7 22:01:59 10° W 22:33:25 - ESE 22:05:19 60° SW
ARGOS 3.6 22:06:36 53° W 22:06:36 53° W 22:11:50 10° NNW
Cosmos 1656 Rocket 4.4 22:13:09 46° NNE 22:13:09 46° NNE 22:16:57 10° NNE
Terra 3.4 22:24:15 30° N 22:24:15 30° N 22:26:41 10° N
H-2A R/B 2.9 22:24:59 49° WNW 22:24:59 49° WNW 22:29:22 10° NNW
CENTAUR R/B 4.4 22:20:32 10° WSW 22:25:24 25° NW 22:30:43 10° N
SPOT 5 4.3 22:28:31 35° W 22:28:31 35° W 22:32:53 10° NNW
Milstar 3 3.6 22:52:10 10° W 22:58:49 49° W 22:58:49 49° W
Cosmos 2297 Rocket 4.5 23:28:12 10° NNE 23:30:03 17° NNE 23:30:03 17° NNE
ATLAS 5 CENTAUR R/B 4.4 23:38:33 10° NW 23:40:57 21° WNW 23:40:57 21° WNW
